Location: Silent Lake
(44.9206°N, 78.0708°W)
Time: 03:01:07
(UTC-05:00)

Daily predictions for brighter satellites

Satellite Brightness Start Highest point End
(mag) Time Altitude Azimuth Time Altitude Azimuth Time Altitude Azimuth
USA 234 4.4 04:08:40 10° ENE 04:14:07 34° NNE 04:14:07 34° NNE
COSMO-SKYMED 1 4.4 04:35:29 10° SE 04:38:53 29° ENE 04:38:53 29° ENE
SL-16 R/B 2.8 04:57:16 46° S 04:57:16 46° S 05:01:11 10° SSE
SeaSat 1 3.5 04:54:08 10° NNE 04:57:03 36° NNE 04:57:03 36° NNE
Cosmos 1816 Rocket 4.3 04:59:06 59° NNW 05:00:26 85° W 05:06:41 10° S
Cosmos 2297 Rocket 3.0 05:05:23 39° N 05:05:23 39° N 05:09:07 10° NNE
ISS -0.2 05:09:16 10° SSE 05:09:16 10° SSE 05:09:19 10° SSE
Cosmos 968 Rocket 3.6 05:06:47 47° S 05:08:15 73° ESE 05:13:32 10° NNE
USA 229 DEB 4.0 05:13:19 47° SW 05:13:19 47° SW 05:19:45 10° S
USA 229 4.0 05:13:22 48° SW 05:13:22 48° SW 05:19:51 10° S
Cosmos 2227 Rocket 3.4 05:18:51 27° NNW 05:18:51 27° NNW 05:21:54 10° NNE
ATLAS CENTAUR R/B 4.2 05:16:30 16° N 05:16:53 16° NNE 05:20:37 10° NE
Cosmos 773 Rocket 4.3 05:17:12 29° N 05:19:52 65° ENE 05:25:07 10° SSE
Meteor 1-16 Rocket 4.2 05:19:50 10° S 05:25:13 73° E 05:30:32 10° NNE
Meteor 1-28 Rocket 3.9 05:21:42 10° SSE 05:25:22 52° ENE 05:26:20 39° NNE
Feng Yun 1-1 Rocket 4.1 05:20:05 10° N 05:25:28 62° WNW 05:26:07 57° WSW
Meteor 1-11 4.4 05:20:15 10° N 05:26:07 77° E 05:31:54 10° SSE
Cosmos 1626 4.4 05:23:00 10° NNE 05:26:10 25° ENE 05:29:18 10° SE
Cosmos 2058 3.4 05:24:24 31° NNE 05:26:10 60° E 05:30:15 10° SSE
NOSS 3-1 (A) 4.0 05:22:15 28° NW 05:26:43 82° NE 05:35:04 10° SE
SKYMED 2 3.4 05:22:50 10° SSE 05:27:11 88° WSW 05:27:32 76° NNW
Cosmos 1271 Rocket 3.3 05:23:59 10° S 05:27:43 56° E 05:31:27 10° NNE
NOAA 6 3.9 05:22:51 10° NNE 05:28:05 86° WNW 05:33:17 10° SSW
ADEOS II 4.2 05:27:44 10° N 05:28:18 13° N 05:28:18 13° N
ATLAS 2AS CENTAUR R/B 4.0 05:28:41 15° NNW 05:35:04 40° NE 05:42:18 10° ESE
Cosmos 1340 Rocket 2.8 05:34:58 48° N 05:35:59 78° ENE 05:39:57 10° SSE
Cosmos 1943 4.2 05:31:26 12° NNW 05:36:33 44° ENE 05:41:57 10° SE
Cosmos 292 Rocket 4.4 05:33:20 17° N 05:36:51 53° ENE 05:41:33 10° SE
Cosmos 2221 3.1 05:34:48 10° S 05:39:03 57° E 05:43:17 10° NNE
Cosmos 1725 Rocket 4.5 05:40:50 37° WNW 05:40:50 37° WNW 05:45:59 10° N
SL-14 R/B 3.3 05:41:34 64° WSW 05:41:34 64° WSW 05:45:19 10° S
SL-24 R/B 4.4 05:37:41 10° N 05:42:30 77° WNW 05:48:13 10° SSW
Cosmos 1777 Rocket 4.0 05:43:25 10° SSW 05:48:38 86° ESE 05:53:53 10° NNE
Cosmos 1356 Rocket 3.9 05:44:56 10° N 05:49:00 58° ENE 05:53:06 10° SSE
Cosmos 1072 Rocket 4.4 05:49:18 10° S 05:55:29 87° W 06:01:39 10° N
Tiangong 2 3.8 05:53:45 10° S 05:55:45 16° SSE 05:57:45 10° ESE
USA 234 3.6 05:50:16 10° ESE 05:56:42 62° NNE 06:01:28 19° NW
ERBS 3.7 05:59:49 26° SSW 05:59:49 26° SSW 06:02:12 10° S
Cosmos 1603 3.6 05:56:06 22° NW 05:59:45 64° WSW 06:05:19 10° S
Cosmos 2151 3.3 05:59:21 40° WNW 05:59:52 42° W 06:03:52 10° SSW
Meteor 2-1 Rocket 4.2 05:55:19 10° S 06:00:57 87° W 06:06:46 10° N
Cosmos 2263 Rocket 3.9 05:56:52 10° S 06:01:57 35° ESE 06:07:05 10° NE
Aureole 1 4.3 06:01:28 10° SSW 06:04:34 81° WNW 06:08:25 10° NNE
NOSS 3-1 (C) 4.2 06:01:36 22° NW 06:06:37 53° WSW 06:14:37 10° SSE
Cosmos 1908 4.2 06:10:59 10° S 06:14:40 49° E 06:18:23 10° NNE
COSMO-SKYMED 1 3.5 06:11:40 10° SSW 06:15:23 28° W 06:16:07 26° WNW
CZ-2C R/B 3.1 06:12:34 10° NNE 06:17:05 53° E 06:21:33 10° S
CSL-04 Rocket 3.5 06:12:58 10° NNE 06:18:18 78° WNW 06:23:33 10° SSW
IDEFIX/ARIANE 42P 3.3 06:13:08 10° NNE 06:18:22 58° E 06:23:32 10° S
Cosmos 1805 Rocket 3.5 06:15:23 10° NNW 06:19:45 59° W 06:24:03 10° S
CZ-4 R/B 1.9 06:17:41 10° NNE 06:21:44 64° ESE 06:25:49 10° S
TELKOM 3 2.9 06:21:13 42° W 06:21:52 69° NNW 06:24:03 10° ENE
Ariane Rocket 3.0 06:17:03 10° N 06:22:04 59° WNW 06:27:04 10° SSW
Cosmos 923 Rocket 4.1 06:18:04 11° NNW 06:22:54 54° WSW 06:28:00 10° S
Genesis I 4.4 06:24:37 22° W 06:25:34 25° WSW 06:28:47 10° S
Cosmos 2228 Rocket 3.9 06:23:17 10° S 06:27:37 55° E 06:31:56 10° NNE
SL-8 R/B 4.1 06:25:32 21° W 06:28:32 50° SSW 06:33:09 10° SE
Cosmos 1680 Rocket 3.6 06:25:44 10° NNW 06:30:58 60° WSW 06:36:11 10° S
Cosmos 2227 4.4 06:26:29 10° SW 06:31:52 47° WNW 06:37:19 10° NNE
CZ-3 Stage 3 4.3 06:29:53 10° SW 06:34:37 24° S 06:48:15 10° SE
SeaSat 1 4.0 06:33:06 10° N 06:35:53 15° NW 06:36:52 15° NW
AQUARIUS 4.4 06:32:51 10° NNE 06:37:22 76° ESE 06:41:52 10° S
SL-16 R/B 4.0 06:39:13 11° W 06:39:13 11° W 06:39:58 10° WSW
Sich 1 3.1 06:36:15 10° NNW 06:40:31 54° W 06:44:43 10° S
Cosmos 1633 Rocket 3.1 06:41:25 10° NNW 06:45:41 55° W 06:49:55 10° S
Coronas F rocket 1.6 06:44:23 12° NNW 06:46:23 35° W 06:48:38 10° SSW
PAYLOAD A 4.0 06:41:29 10° N 06:46:24 55° WNW 06:51:08 10° SSW
Cosmos 2297 Rocket 3.9 06:47:13 11° NW 06:48:52 13° NW 06:51:18 10° NNW
MSX 4.2 06:43:58 10° NNE 06:49:45 70° ESE 06:55:30 10° S
Cosmos 2034 Rocket 4.2 06:44:39 10° SSW 06:50:38 50° WNW 06:56:43 10° N
Cosmos 1328 Rocket 3.5 06:46:20 10° S 06:50:40 88° WNW 06:55:03 10° N
Nadezhda 4 Rocket 4.1 06:45:25 10° NNW 06:51:39 61° W 06:57:49 10° S
Cosmos 1703 4.4 06:49:33 10° NW 06:52:40 23° W 06:55:47 10° SW
Cosmos 2026 Rocket 4.5 06:49:36 10° N 06:55:38 63° E 07:01:39 10° SSE
Cosmos 389 Rocket 2.7 06:52:15 10° SSW 06:55:50 49° WNW 06:59:26 10° N
Cosmos 1515 Rocket 3.7 06:55:00 10° S 06:59:25 86° E 07:03:53 10° N
Cosmos 1626 3.4 06:58:29 10° NW 07:01:25 22° W 07:04:20 10° SW
CZ-4 R/B 4.4 06:58:11 10° NNE 07:02:20 84° WNW 07:06:27 10° SSW
Cosmos 1151 Rocket 3.6 06:58:21 10° S 07:02:34 63° E 07:06:48 10° NNE
Gbstr 26 Del rocket 4.4 06:57:42 10° SW 07:03:18 67° SE 07:10:15 10° ENE
PSLV R/B 4.2 07:02:28 10° WSW 07:05:42 42° S 07:08:54 10° ESE
Cosmos 2344 3.8 06:58:16 10° SW 07:05:57 89° NW 07:14:52 10° NE
MOS 1 4.3 07:00:25 10° NNE 07:06:09 79° WNW 07:11:50 10° SSW
OPS 8737 4.2 07:02:57 10° SW 07:06:13 79° NW 07:09:25 10° NE
YAOGAN 1 2.6 07:02:12 10° N 07:06:29 62° WNW 07:10:45 10° SSW
Cosmos 1937 Rocket 4.0 07:02:50 10° S 07:07:54 67° ESE 07:13:02 10° NNE
Cosmos 1092 Rocket 4.1 07:04:14 10° NNW 07:10:26 60° W 07:16:31 10° S
Cosmos 2298 Rocket 4.1 07:05:12 10° SSW 07:10:31 89° WNW 07:15:51 10° NNE
BREEZE-M DEB (TANK) 1.7 07:10:12 10° WNW 07:12:51 75° NNE 07:14:57 10° ESE
